KB9LNR Weather Reports


time (UTC)temp
C
wind
direction
speed
KPH
gust
KPH
rain 1hr
cm
rain 24hr
cm
rain mn
cm
humidity
%
barometer
mb
20260906021616 24 0 0.0 1.6 0.00 0.00 0.00 83 1015.1
20260906020107 25 44 0.0 3.2 0.00 0.00 0.00 82 1015.1
20260906014628 25 33 0.0 4.8 0.00 0.00 0.00 82 1014.9
20260906013104 25 60 0.0 4.8 0.00 0.00 0.00 81 1014.6
20260906011607 26 0 1.6 6.4 0.00 0.00 0.00 81 1014.6
20260906010109 26 58 0.0 6.4 0.00 0.00 0.00 80 1014.4
20260906004606 26 19 0.0 6.4 0.00 0.00 0.00 79 1014.3
20260906003110 27 49 1.6 8.0 0.00 0.00 0.00 78 1014.1
20260906001606 27 41 0.0 4.8 0.00 0.00 0.00 76 1014.0
20260906000109 28 69 0.0 3.2 0.00 0.00 0.00 76 1013.9
20260905234618 28 0 0.0 6.4 0.00 0.00 0.00 75 1014.0
20260905233106 28 32 1.6 6.4 0.00 0.00 0.00 75 1013.8
20260905231607 29 13 0.0 4.8 0.00 0.00 0.00 74 1013.4
20260905230110 30 0 1.6 4.8 0.00 0.00 0.00 74 1013.4
20260905224610 30 11 1.6 6.4 0.00 0.00 0.00 72 1013.5
20260905223107 31 0 0.0 6.4 0.00 0.00 0.00 72 1013.4
20260905221605 31 0 0.0 4.8 0.00 0.00 0.00 70 1013.4
20260905220108 31 0 0.0 4.8 0.00 0.00 0.00 68 1013.3
20260905214613 31 320 0.0 4.8 0.00 0.00 0.00 69 1013.3
20260905213117 31 12 1.6 6.4 0.00 0.00 0.00 68 1013.2
20260905211607 32 65 0.0 4.8 0.00 0.00 0.00 68 1013.2
20260905210109 32 321 1.6 6.4 0.00 0.00 0.00 67 1013.2
20260905204605 32 0 0.0 6.4 0.00 0.00 0.00 68 1013.3
20260905203108 31 0 1.6 6.4 0.00 0.00 0.00 68 1013.4
20260905201608 32 333 0.0 4.8 0.00 0.00 0.00 69 1013.4
20260905200106 32 329 0.0 4.8 0.00 0.00 0.00 69 1013.5
20260905194606 32 311 1.6 4.8 0.00 0.00 0.00 69 1013.6
20260905193106 32 0 0.0 4.8 0.00 0.00 0.00 69 1013.6
20260905191615 32 0 0.0 4.8 0.00 0.00 0.00 69 1013.8
20260905190105 32 337 1.6 4.8 0.00 0.00 0.00 69 1013.9
20260905184621 32 0 0.0 4.8 0.00 0.00 0.00 69 1014.0
20260905183106 32 305 1.6 6.4 0.00 0.00 0.00 68 1014.1
20260905181610 32 0 1.6 6.4 0.00 0.00 0.00 69 1014.2
20260905180111 32 328 0.0 4.8 0.00 0.00 0.00 69 1014.2
20260905174617 31 0 0.0 4.8 0.00 0.00 0.00 70 1014.3
20260905173113 31 325 1.6 4.8 0.00 0.00 0.00 71 1014.4
20260905171605 31 5 0.0 8.0 0.00 0.00 0.00 72 1014.4
20260905170106 31 94 0.0 6.4 0.00 0.00 0.00 72 1014.5
20260905164605 31 95 1.6 6.4 0.00 0.00 0.00 73 1014.6
20260905163108 30 71 1.6 6.4 0.00 0.00 0.00 75 1014.7
20260905161608 30 0 0.0 3.2 0.00 0.00 0.00 76 1014.7
20260905160113 30 355 0.0 3.2 0.00 0.00 0.00 75 1014.6
20260905154607 29 0 1.6 4.8 0.00 0.00 0.00 75 1014.6
20260905153118 29 0 1.6 4.8 0.00 0.00 0.00 75 1014.5
20260905151609 28 0 0.0 4.8 0.00 0.00 0.00 76 1014.4
20260905150108 28 10 0.0 4.8 0.00 0.00 0.00 75 1014.4
20260905144611 28 317 0.0 4.8 0.00 0.00 0.00 76 1014.4
20260905143112 28 0 0.0 3.2 0.00 0.00 0.00 78 1014.1
20260905141615 27 155 0.0 3.2 0.00 0.00 0.00 78 1014.1
20260905140109 27 155 0.0 3.2 0.00 0.00 0.00 79 1014.0
20260905134615 26 0 0.0 0.0 0.00 0.00 0.00 84 1014.0
20260905133105 26 0 0.0 0.0 0.00 0.00 0.00 86 1013.8
20260905131608 25 0 0.0 0.0 0.00 0.00 0.00 87 1014.1
20260905130117 25 0 0.0 0.0 0.00 0.00 0.00 88 1014.0
20260905124609 25 0 0.0 0.0 0.00 0.00 0.00 90 1013.6
20260905123109 25 0 0.0 0.0 0.00 0.00 0.00 90 1013.5
20260905121605 25 0 0.0 0.0 0.00 0.00 0.00 90 1013.4
20260905120112 24 0 0.0 0.0 0.00 0.00 0.00 89 1013.4
20260905114637 24 0 0.0 0.0 0.00 0.00 0.00 89 1013.2
20260905113108 25 0 0.0 0.0 0.00 0.00 0.00 89 1013.2
20260905111608 25 0 0.0 0.0 0.00 0.00 0.00 88 1013.0
20260905110108 25 0 0.0 0.0 0.00 0.00 0.00 87 1013.0
20260905104612 25 0 0.0 0.0 0.00 0.00 0.00 87 1013.0
20260905103123 25 0 0.0 0.0 0.00 0.00 0.00 87 1013.2
20260905101615 25 0 0.0 0.0 0.00 0.00 0.00 87 1013.0
20260905100123 25 0 0.0 0.0 0.00 0.00 0.00 86 1013.1
20260905094625 25 0 0.0 0.0 0.00 0.00 0.00 86 1013.3
20260905093105 25 0 0.0 0.0 0.00 0.00 0.00 85 1013.3
20260905091616 25 0 0.0 0.0 0.00 0.00 0.00 85 1013.2
20260905090109 25 0 0.0 0.0 0.00 0.00 0.00 85 1013.2
20260905084607 25 0 0.0 0.0 0.00 0.00 0.00 85 1013.2
20260905083103 25 0 0.0 3.2 0.00 0.00 0.00 86 1013.3
20260905081609 25 0 0.0 0.0 0.00 0.00 0.00 86 1013.3
20260905080104 25 0 0.0 0.0 0.00 0.00 0.00 86 1013.4
20260905074606 25 0 0.0 0.0 0.00 0.00 0.00 86 1013.4
20260905073110 25 0 0.0 0.0 0.00 0.00 0.00 85 1013.6
20260905071610 25 0 0.0 0.0 0.00 0.00 0.00 85 1013.6
20260905070107 25 0 0.0 0.0 0.00 0.00 0.00 85 1013.6
20260905064616 25 0 0.0 0.0 0.00 0.00 0.00 86 1013.6
20260905063117 25 0 0.0 0.0 0.00 0.00 0.00 86 1013.5
20260905061622 25 0 0.0 0.0 0.00 0.00 0.00 85 1013.7
20260905060106 26 0 0.0 0.0 0.00 0.00 0.00 85 1013.9
20260905054606 26 0 0.0 0.0 0.00 0.00 0.00 85 1013.9
20260905053105 26 0 0.0 0.0 0.00 0.00 0.00 85 1013.9
20260905051626 26 0 0.0 0.0 0.00 0.00 0.00 83 1013.7
20260905050113 26 0 0.0 0.0 0.00 0.00 0.00 82 1013.6
20260905044608 26 0 0.0 0.0 0.00 0.00 0.00 81 1013.8
20260905043105 27 0 0.0 0.0 0.00 0.00 0.00 82 1013.9
20260905041607 27 0 0.0 0.0 0.00 0.00 0.00 82 1013.9
20260905040122 27 0 0.0 0.0 0.00 0.00 0.00 83 1013.6
20260905034613 27 0 0.0 1.6 0.00 0.00 0.00 82 1013.7
20260905033120 27 0 0.0 0.0 0.00 0.00 0.00 82 1013.8
20260905031621 27 0 0.0 0.0 0.00 0.00 0.00 82 1013.8
20260905030110 26 0 0.0 0.0 0.00 0.00 0.00 83 1013.7
20260905024611 26 0 0.0 0.0 0.00 0.00 0.00 83 1013.4
20260905023137 27 0 0.0 1.6 0.00 0.00 0.00 82 1013.6